Погода в Ммабатхо

ЮАР     25°50′12″S   25°35′35″E
темп.,
°C
ветер,
м/с
пор.,
м/с
влажн.,
%
обл.,
%
осадки,
мм/ч
давл.,
гПа
погр.,
м
17 августа, ср
ср1723:00+13ссв463456 0.0 102082
02:00+11с473959 0.0 101991
05:00+10ссв49449 0.0 1017129
08:00+13ссв410437 0.0 1018231
11:00+22ссз68185 0.0 1016996
14:00+27зсз811818 0.0 10112092
17:00+25зсз69914 0.0 10101173
20:00+17зсз34140 0.0 101339
18 августа, чт
чт1823:00+15ссв22180 0.0 101311
02:00+14с33170 0.0 101227
05:00+12ссз47180 0.0 1013108
08:00+13зсз27190 0.0 1014184
11:00+20зюз46140 0.0 1013831
14:00+23з69111 0.0 10101686
17:00+20з79155 0.0 10091566
20:00+15зюз61226100 0.0 1014508
19 августа, пт
пт1923:00+12ююз71341100 0.0 1015598
02:00+9ююз5105242 0.0 1015423
05:00+6ююз510655 0.0 1018431
08:00+7ююз610583 0.0 1021814
11:00+13ююз710300 0.0 10211584
14:00+17ююз8102065 0.0 10181759
17:00+16ююз782514 0.0 10181624
20:00+11ю473670 0.0 1021154
20 августа, сб
сб2023:00+8ююз23503 0.0 102362
02:00+7юз36557 0.0 1025101
05:00+5ююз22625 0.0 102431
08:00+8ююз48490 0.0 1026267
11:00+16ююз69140 0.0 10241099
14:00+19ююз68120 0.0 10211447
17:00+17ююз68170 0.0 10211424
20:00+11ю47280 0.0 1025126
21 августа, вс
вс2123:00+9юв47340 0.0 1026114
02:00+8юв35390 0.0 102783
05:00+7юв35410 0.0 102763
08:00+9юв35360 0.0 1028170
11:00+18всв33180 0.0 10251091
14:00+21с44140 0.0 10211741
17:00+21ссз33140 0.0 10212006
20:00+15ссв44210 0.0 102345